This is the latest recevied weather packets stored in our database for station/object K1BWE-1. If no packets are shown the sender has not sent any weather packets the latest 10 day(s).
| Time | Temp. | Humidity | Pressure | Rain* | Wind** | Luminosity | Snow |
|---|---|---|---|---|---|---|---|
| 1777556063 | 14.44° C | 35% | 1013.6 hPa | 0 mm | - | 54 W/m² | - |
| 1777555763 | 14.44° C | 32% | 1013.6 hPa | 0 mm | - | 50 W/m² | - |
| 1777555460 | 14.44° C | 34% | 1013.6 hPa | 0 mm | - | 35 W/m² | - |
| 1777555155 | 14.44° C | 33% | 1013.3 hPa | 0 mm | - | 28 W/m² | - |
| 1777554853 | 15° C | 33% | 1013.4 hPa | 0 mm | - | 24 W/m² | - |
| 1777554550 | 14.44° C | 33% | 1013.2 hPa | 0 mm | - | 16 W/m² | - |
| 1777554247 | 14.44° C | 33% | 1013 hPa | 0 mm | - | 12 W/m² | - |
| 1777553944 | 15° C | 33% | 1013.3 hPa | 0 mm | - | 8 W/m² | - |
| 1777553640 | 15° C | 32% | 1013.3 hPa | 0 mm | - | 4 W/m² | - |
| 1777553336 | 15° C | 31% | 1013.4 hPa | 0 mm | - | 3 W/m² | - |
| 1777553033 | 15° C | 31% | 1013.4 hPa | 0 mm | - | 1 W/m² | - |
| 1777552727 | 15° C | 31% | 1013 hPa | 0 mm | - | 0 W/m² | - |
| 1777552424 | 15° C | 31% | 1013.4 hPa | 0 mm | - | 0 W/m² | - |
| 1777552120 | 15° C | 29% | 1013.2 hPa | 0 mm | - | 0 W/m² | - |
| 1777551818 | 15° C | 30% | 1013.3 hPa | 0 mm | - | 0 W/m² | - |
| 1777551516 | 14.44° C | 32% | 1013.2 hPa | 0 mm | - | 0 W/m² | - |
| 1777551212 | 14.44° C | 32% | 1013.1 hPa | 0 mm | - | 0 W/m² | - |
| 1777550908 | 14.44° C | 32% | 1013.2 hPa | 0 mm | - | 0 W/m² | - |
| 1777550605 | 14.44° C | 32% | 1013.3 hPa | 0 mm | - | 0 W/m² | - |
| 1777550301 | 15° C | 31% | 1013.2 hPa | 0 mm | - | 0 W/m² | - |
| 1777549997 | 15° C | 31% | 1013.3 hPa | 0 mm | - | 0 W/m² | - |
| 1777549694 | 15° C | 30% | 1013.2 hPa | 0 mm | - | 0 W/m² | - |
| 1777549389 | 15° C | 31% | 1013.3 hPa | 0 mm | - | 0 W/m² | - |
| 1777549087 | 15° C | 33% | 1013.3 hPa | 0 mm | - | 0 W/m² | - |
| 1777548782 | 15° C | 33% | 1013.4 hPa | 0 mm | - | 0 W/m² | - |
* Rain latest hour (hover to see other rain measurements)
** Current wind speed in m/s (hover to see current wind gust speed)